Home > Weather > Jessheim > Past weeks

Flag for Norway Past Weather in Jessheim, Norway — Yesterday and Last 2 Weeks

Now
66 °F

Scattered clouds.


Feels Like: 66 °F
Forecast: 49 / 64 °F
Wind: 9 mph from South

Location: Oslo Gardermoen Airport

Current Time: Jul 30, 2016 at 1:28:33 PM

Latest Report: Jul 30, 2016 at 12:50 PM


Visibility: N/A

Pressure: 29.62 "Hg

Humidity: 60%

Dew Point: 52 °F

Location of JessheimLocation

Past Weather in Jessheim — Graph

°F

Jessheim Temperature Yesterday

Maximum temperature yesterday: 66 °F (at 2:50 PM)
Minimum temperature yesterday: 54 °F (at 4:20 AM)
Average temperature yesterday: 60 °F

High & Low Weather Summary for the Past Weeks

 TemperatureHumidityPressure
High79 °F (Jul 21, 4:50 PM)100% (Jul 27, 7:20 AM)30.12 "Hg (Jul 27, 7:20 AM)
Low46 °F (Jul 19, 4:20 AM)35% (Jul 16, 5:50 PM)29.62 "Hg (Jul 30, 6:20 AM)
Average64 °F68%29.94 "Hg
* Reported Jul 15 11:20 AM — Jul 30 11:50 AM, Jessheim, Weather by CustomWeather, © 2016

Note: Actual official high and low records may vary slightly from our data, if they occured in-between our weather recording intervals... More about our weather records

Advertising

Jessheim Weather History for the Previous 24 Hours

Scroll right to see more
 ConditionsComfort  
Time TempWeatherWind HumidityBarometerVisibility
11:50 AM
Sat, Jul 30
64 °FScattered clouds.6 mph64%29.62 "HgN/A
11:20 AM63 °FBroken clouds.6 mph73%29.62 "HgN/A
10:50 AM61 °FScattered clouds.5 mph72%29.62 "HgN/A
10:20 AM63 °FScattered clouds.6 mph77%29.62 "HgN/A
9:50 AM61 °FBroken clouds.3 mph77%29.62 "HgN/A
9:20 AM61 °FBroken clouds.6 mph77%29.62 "HgN/A
8:50 AM59 °FBroken clouds.3 mph88%29.62 "HgN/A
8:20 AM57 °FScattered showers. Broken clouds.6 mph88%29.62 "HgN/A
7:50 AM57 °FPartly sunny.7 mph88%29.62 "HgN/A
7:20 AM55 °FBroken clouds.7 mph94%29.62 "HgN/A
6:50 AM55 °FBroken clouds.7 mph94%29.65 "HgN/A
6:20 AM55 °FBroken clouds.6 mph94%29.62 "HgN/A
5:50 AM55 °FPartly cloudy.6 mph94%29.65 "HgN/A
5:20 AM55 °FPartly cloudy.8 mph94%29.65 "HgN/A
4:50 AM57 °FPartly cloudy.9 mph88%29.65 "HgN/A
4:20 AM57 °FSprinkles. Mostly cloudy.9 mph94%29.65 "HgN/A
3:50 AM57 °FMostly cloudy.8 mph94%29.65 "HgN/A
3:20 AM57 °FLight rain. Partly cloudy.8 mph94%29.65 "Hg4 mi
2:50 AM57 °FLight rain. Overcast.8 mph94%29.65 "HgN/A
2:20 AM57 °FLight rain. Mostly cloudy.10 mph94%29.65 "HgN/A
1:50 AM57 °FLight rain. Partly cloudy.12 mph94%29.65 "HgN/A
1:20 AM57 °FLight rain. Partly cloudy.13 mph94%29.68 "Hg6 mi
12:50 AM57 °FRain. Mostly cloudy.8 mph94%29.68 "Hg6 mi
12:20 AM57 °FRain showers. Partly cloudy.5 mph94%29.68 "HgN/A
11:50 PM
Fri, Jul 29
59 °FSprinkles. Partly cloudy.3 mph88%29.68 "HgN/A
11:20 PM59 °FSprinkles. Overcast.3 mph82%29.71 "HgN/A
10:50 PM59 °FSprinkles. Broken clouds.3 mph82%29.71 "HgN/A
10:20 PM59 °FSprinkles. Broken clouds.6 mph82%29.71 "HgN/A
9:20 PM61 °FScattered showers. Broken clouds.1 mph77%29.71 "HgN/A
8:50 PM61 °FLight rain. More clouds than sun.1 mph77%29.74 "HgN/A
8:20 PM61 °FLight rain. Clear.3 mph72%29.74 "HgN/A
7:50 PM61 °FPassing clouds.6 mph68%29.74 "HgN/A
7:20 PM63 °FPartly sunny.8 mph64%29.74 "HgN/A
6:50 PM63 °FBroken clouds.7 mph64%29.74 "HgN/A
6:20 PM64 °FPassing clouds.7 mph56%29.74 "HgN/A
5:50 PM66 °FBroken clouds.12 mph52%29.74 "HgN/A
5:20 PM66 °FPartly sunny.10 mph52%29.74 "HgN/A
4:50 PM66 °FPartly sunny.12 mph56%29.74 "HgN/A
4:20 PM66 °FBroken clouds.9 mph52%29.74 "HgN/A
3:50 PM66 °FPartly sunny.12 mph52%29.77 "HgN/A
3:20 PM66 °FPartly sunny.12 mph52%29.77 "HgN/A
2:50 PM66 °FPassing clouds.10 mph56%29.77 "HgN/A
2:20 PM64 °FBroken clouds.12 mph56%29.77 "HgN/A
1:50 PM64 °FBroken clouds.10 mph56%29.77 "HgN/A
1:20 PM64 °FBroken clouds.10 mph60%29.77 "HgN/A
Weather by CustomWeather, © 2016

See weather overviewHow to use our weather pages